Time,TemperatureF,DewpointF,PressureIn,WindDirection,WindDirectionDegrees,WindSpeedMPH,WindSpeedGustMPH,Humidity,HourlyPrecipIn,Conditions,Clouds,dailyrainin,SoftwareType,DateUTC
2013-03-02 00:00:00,53.5,49.3,29.90,SSW,201,2.2,4.0,86,0.00,,,0.00,WUHU216HW,2013-03-02 08:00:00,
2013-03-02 00:05:00,53.5,49.3,29.90,South,181,2.2,4.0,86,0.00,,,0.00,WUHU216HW,2013-03-02 08:05:00,
2013-03-02 00:10:00,53.5,49.3,29.90,South,187,2.0,3.4,86,0.00,,,0.00,WUHU216HW,2013-03-02 08:10:00,
2013-03-02 00:15:00,53.6,49.5,29.89,South,176,2.0,4.0,86,0.00,,,0.00,WUHU216HW,2013-03-02 08:15:00,
2013-03-02 00:20:00,53.6,49.5,29.90,SSW,195,1.0,4.0,86,0.00,,,0.00,WUHU216HW,2013-03-02 08:20:00,
2013-03-02 00:25:00,53.6,49.5,29.89,South,179,1.5,3.4,86,0.00,,,0.00,WUHU216HW,2013-03-02 08:25:00,
2013-03-02 00:30:00,53.5,49.3,29.89,South,180,2.5,4.0,86,0.00,,,0.00,WUHU216HW,2013-03-02 08:30:00,
2013-03-02 00:35:00,53.5,49.3,29.89,SSW,203,2.9,4.0,86,0.00,,,0.00,WUHU216HW,2013-03-02 08:35:00,
2013-03-02 00:40:00,53.5,49.1,29.89,South,189,2.0,4.7,85,0.00,,,0.00,WUHU216HW,2013-03-02 08:40:00,
2013-03-02 00:45:00,53.6,49.2,29.89,South,180,3.6,4.7,85,0.00,,,0.00,WUHU216HW,2013-03-02 08:45:00,
2013-03-02 00:50:00,53.8,49.1,29.89,South,183,2.1,3.6,84,0.00,,,0.00,WUHU216HW,2013-03-02 08:50:00,
2013-03-02 00:55:00,54.0,49.2,29.89,SSE,158,0.9,3.6,84,0.00,,,0.00,WUHU216HW,2013-03-02 08:55:00,
2013-03-02 01:00:00,53.8,49.1,29.89,South,170,1.3,3.1,84,0.00,,,0.00,WUHU216HW,2013-03-02 09:00:00,
2013-03-02 01:05:00,53.8,49.1,29.89,South,180,0.7,2.5,84,0.00,,,0.00,WUHU216HW,2013-03-02 09:05:00,
2013-03-02 01:10:00,53.6,49.0,29.89,South,180,1.3,2.5,84,0.00,,,0.00,WUHU216HW,2013-03-02 09:10:00,
2013-03-02 01:15:00,53.6,49.0,29.89,South,180,1.4,1.8,84,0.00,,,0.00,WUHU216HW,2013-03-02 09:15:00,
2013-03-02 01:20:00,53.6,49.0,29.89,SSW,203,2.7,2.7,84,0.00,,,0.00,WUHU216HW,2013-03-02 09:20:00,
2013-03-02 01:25:00,53.6,49.0,29.89,SSE,163,1.2,2.7,84,0.00,,,0.00,WUHU216HW,2013-03-02 09:25:00,
2013-03-02 01:30:00,53.6,49.0,29.89,South,180,2.2,3.1,84,0.00,,,0.00,WUHU216HW,2013-03-02 09:30:00,
2013-03-02 01:35:00,53.6,49.0,29.90,SSW,207,1.0,3.1,84,0.00,,,0.00,WUHU216HW,2013-03-02 09:35:00,
2013-03-02 01:40:00,53.6,49.0,29.90,SSE,158,3.4,3.8,84,0.00,,,0.00,WUHU216HW,2013-03-02 09:40:00,
2013-03-02 01:45:00,53.6,49.0,29.89,South,170,1.0,4.0,84,0.00,,,0.00,WUHU216HW,2013-03-02 09:45:00,
2013-03-02 01:50:00,53.6,49.0,29.89,South,178,1.9,4.0,84,0.00,,,0.00,WUHU216HW,2013-03-02 09:50:00,
2013-03-02 01:55:00,53.6,49.0,29.89,SSE,167,1.7,2.9,84,0.00,,,0.00,WUHU216HW,2013-03-02 09:55:00,
2013-03-02 02:00:00,53.5,48.8,29.89,South,176,1.8,2.9,84,0.00,,,0.00,WUHU216HW,2013-03-02 10:00:00,
2013-03-02 02:05:00,53.5,48.8,29.88,South,178,2.1,4.0,84,0.00,,,0.00,WUHU216HW,2013-03-02 10:05:00,
2013-03-02 02:10:00,53.5,48.8,29.88,South,188,2.7,5.1,84,0.00,,,0.00,WUHU216HW,2013-03-02 10:10:00,
2013-03-02 02:15:00,53.5,48.8,29.88,South,180,1.3,5.1,84,0.00,,,0.00,WUHU216HW,2013-03-02 10:15:00,
2013-03-02 02:20:00,53.5,48.8,29.88,South,180,2.9,4.0,84,0.00,,,0.00,WUHU216HW,2013-03-02 10:20:00,
2013-03-02 02:25:00,53.5,48.8,29.88,South,180,3.4,4.0,84,0.00,,,0.00,WUHU216HW,2013-03-02 10:25:00,
2013-03-02 02:30:00,53.3,48.6,29.88,South,180,1.8,3.4,84,0.00,,,0.00,WUHU216HW,2013-03-02 10:30:00,
2013-03-02 02:35:00,53.3,48.6,29.88,SSE,158,1.1,3.4,84,0.00,,,0.00,WUHU216HW,2013-03-02 10:35:00,
2013-03-02 02:40:00,53.1,48.4,29.87,SW,225,1.6,2.7,84,0.00,,,0.00,WUHU216HW,2013-03-02 10:40:00,
2013-03-02 02:46:00,52.9,48.3,29.87,SSE,158,3.4,3.4,84,0.00,,,0.00,WUHU216HW,2013-03-02 10:46:00,
2013-03-02 02:51:00,52.9,48.3,29.87,South,184,1.8,3.4,84,0.00,,,0.00,WUHU216HW,2013-03-02 10:51:00,
2013-03-02 02:55:00,52.7,48.1,29.87,South,180,2.5,3.4,84,0.00,,,0.00,WUHU216HW,2013-03-02 10:55:00,
2013-03-02 03:00:00,52.6,48.2,29.86,SSE,158,1.0,3.1,85,0.00,,,0.00,WUHU216HW,2013-03-02 11:00:00,
2013-03-02 03:05:00,52.6,48.2,29.86,SSE,162,0.9,2.5,85,0.00,,,0.00,WUHU216HW,2013-03-02 11:05:00,
2013-03-02 03:10:00,52.6,48.2,29.86,SSE,165,1.7,3.8,85,0.00,,,0.00,WUHU216HW,2013-03-02 11:10:00,
2013-03-02 03:15:00,52.4,48.0,29.85,SSE,158,1.8,4.5,85,0.00,,,0.00,WUHU216HW,2013-03-02 11:15:00,
2013-03-02 03:20:00,52.4,48.0,29.85,SSE,158,2.0,4.5,85,0.00,,,0.00,WUHU216HW,2013-03-02 11:20:00,
2013-03-02 03:25:00,52.2,47.8,29.85,SSE,158,2.0,3.4,85,0.00,,,0.00,WUHU216HW,2013-03-02 11:25:00,
2013-03-02 03:30:00,52.2,47.8,29.85,South,172,1.0,3.4,85,0.00,,,0.00,WUHU216HW,2013-03-02 11:30:00,
2013-03-02 03:35:00,52.2,47.8,29.84,South,176,3.0,4.0,85,0.00,,,0.00,WUHU216HW,2013-03-02 11:35:00,
2013-03-02 03:40:00,52.2,47.8,29.84,South,180,2.2,4.0,85,0.00,,,0.00,WUHU216HW,2013-03-02 11:40:00,
2013-03-02 03:45:00,52.2,47.8,29.84,South,180,2.5,4.9,85,0.00,,,0.00,WUHU216HW,2013-03-02 11:45:00,
2013-03-02 03:50:00,52.2,47.8,29.84,SSW,203,3.4,4.9,85,0.00,,,0.00,WUHU216HW,2013-03-02 11:50:00,
2013-03-02 03:55:00,52.2,47.8,29.84,SSE,158,3.4,4.0,85,0.00,,,0.00,WUHU216HW,2013-03-02 11:55:00,
2013-03-02 04:00:00,52.2,47.8,29.83,SSE,158,2.2,4.0,85,0.00,,,0.00,WUHU216HW,2013-03-02 12:00:00,
2013-03-02 04:05:00,52.2,47.8,29.83,SSE,158,3.6,4.0,85,0.00,,,0.00,WUHU216HW,2013-03-02 12:05:00,
2013-03-02 04:10:00,52.2,47.5,29.83,SSE,158,3.1,4.0,84,0.00,,,0.00,WUHU216HW,2013-03-02 12:10:00,
2013-03-02 04:15:00,52.4,47.7,29.83,South,186,3.3,4.9,84,0.00,,,0.00,WUHU216HW,2013-03-02 12:15:00,
2013-03-02 04:20:00,52.2,47.5,29.83,South,175,2.9,5.4,84,0.00,,,0.00,WUHU216HW,2013-03-02 12:20:00,
2013-03-02 04:26:00,52.2,47.5,29.83,SSE,158,3.1,5.4,84,0.00,,,0.00,WUHU216HW,2013-03-02 12:26:00,
2013-03-02 04:31:00,52.2,47.5,29.83,South,174,2.0,3.6,84,0.00,,,0.00,WUHU216HW,2013-03-02 12:31:00,
2013-03-02 04:36:00,52.0,47.4,29.83,South,180,2.5,3.6,84,0.00,,,0.00,WUHU216HW,2013-03-02 12:36:00,
2013-03-02 04:41:00,52.0,47.4,29.83,South,175,1.3,3.6,84,0.00,,,0.00,WUHU216HW,2013-03-02 12:41:00,
2013-03-02 04:46:00,51.8,47.2,29.83,SSE,156,1.5,3.4,84,0.00,,,0.00,WUHU216HW,2013-03-02 12:46:00,
2013-03-02 04:51:00,51.8,47.2,29.82,SSE,167,2.5,4.0,84,0.00,,,0.00,WUHU216HW,2013-03-02 12:51:00,
2013-03-02 04:56:00,51.8,47.2,29.82,SSE,155,1.6,4.0,84,0.00,,,0.00,WUHU216HW,2013-03-02 12:56:00,
2013-03-02 05:01:00,51.8,46.8,29.82,South,180,3.1,3.4,83,0.00,,,0.00,WUHU216HW,2013-03-02 13:01:00,
2013-03-02 05:06:00,51.7,46.6,29.82,South,175,1.8,3.6,83,0.00,,,0.00,WUHU216HW,2013-03-02 13:06:00,
2013-03-02 05:11:00,51.7,46.6,29.82,South,173,1.2,3.6,83,0.00,,,0.00,WUHU216HW,2013-03-02 13:11:00,
2013-03-02 05:16:00,51.5,46.4,29.82,SSE,158,2.9,4.7,83,0.00,,,0.00,WUHU216HW,2013-03-02 13:16:00,
2013-03-02 05:21:00,51.5,46.4,29.82,South,170,1.0,4.7,83,0.00,,,0.00,WUHU216HW,2013-03-02 13:21:00,
2013-03-02 05:26:00,51.5,46.4,29.82,SSE,158,1.1,2.9,83,0.00,,,0.00,WUHU216HW,2013-03-02 13:26:00,
2013-03-02 05:31:00,51.5,46.4,29.82,South,180,0.9,1.8,83,0.00,,,0.00,WUHU216HW,2013-03-02 13:31:00,
2013-03-02 05:36:00,51.5,46.4,29.82,SSE,158,1.8,2.2,83,0.00,,,0.00,WUHU216HW,2013-03-02 13:36:00,
2013-03-02 05:41:00,51.5,46.4,29.81,South,182,0.9,2.2,83,0.00,,,0.00,WUHU216HW,2013-03-02 13:41:00,
2013-03-02 05:46:00,51.5,46.4,29.81,South,185,1.0,2.0,83,0.00,,,0.00,WUHU216HW,2013-03-02 13:46:00,
2013-03-02 05:51:00,51.5,46.4,29.81,SSE,158,0.9,1.8,83,0.00,,,0.00,WUHU216HW,2013-03-02 13:51:00,
2013-03-02 05:56:00,51.5,46.4,29.81,SSW,203,2.5,3.4,83,0.00,,,0.00,WUHU216HW,2013-03-02 13:56:00,
2013-03-02 06:01:00,51.3,46.3,29.81,SW,225,2.5,3.4,83,0.00,,,0.00,WUHU216HW,2013-03-02 14:01:00,
2013-03-02 06:06:00,51.3,46.3,29.81,South,190,1.2,2.5,83,0.00,,,0.00,WUHU216HW,2013-03-02 14:06:00,
2013-03-02 06:11:00,51.3,46.0,29.81,SSE,166,2.5,4.3,82,0.00,,,0.00,WUHU216HW,2013-03-02 14:11:00,
2013-03-02 06:16:00,51.3,46.0,29.81,South,180,1.6,4.3,82,0.00,,,0.00,WUHU216HW,2013-03-02 14:16:00,
2013-03-02 06:21:00,51.1,45.8,29.81,South,180,4.7,4.7,82,0.00,,,0.00,WUHU216HW,2013-03-02 14:21:00,
2013-03-02 06:26:00,51.1,45.8,29.81,SSE,158,4.0,4.7,82,0.00,,,0.00,WUHU216HW,2013-03-02 14:26:00,
2013-03-02 06:31:00,51.1,45.8,29.81,SSE,166,2.7,5.4,82,0.00,,,0.00,WUHU216HW,2013-03-02 14:31:00,
2013-03-02 06:36:00,50.9,45.6,29.81,South,170,2.2,5.4,82,0.00,,,0.00,WUHU216HW,2013-03-02 14:36:00,
2013-03-02 06:41:00,50.9,45.6,29.81,SSE,158,2.5,5.4,82,0.00,,,0.00,WUHU216HW,2013-03-02 14:41:00,
2013-03-02 06:46:00,50.8,45.5,29.80,South,183,2.3,5.4,82,0.00,,,0.00,WUHU216HW,2013-03-02 14:46:00,
2013-03-02 06:51:00,50.8,45.5,29.81,SSW,203,3.6,4.0,82,0.00,,,0.00,WUHU216HW,2013-03-02 14:51:00,
2013-03-02 06:56:00,50.8,45.5,29.80,SSE,158,2.7,4.0,82,0.00,,,0.00,WUHU216HW,2013-03-02 14:56:00,
2013-03-02 07:01:00,50.8,45.5,29.80,SSE,161,2.4,5.6,82,0.00,,,0.00,WUHU216HW,2013-03-02 15:01:00,
2013-03-02 07:06:00,50.8,45.5,29.80,South,173,2.5,5.6,82,0.00,,,0.00,WUHU216HW,2013-03-02 15:06:00,
2013-03-02 07:11:00,50.8,45.5,29.80,South,180,2.9,4.3,82,0.00,,,0.00,WUHU216HW,2013-03-02 15:11:00,
2013-03-02 07:16:00,50.8,45.5,29.80,SSW,203,4.0,4.0,82,0.00,,,0.00,WUHU216HW,2013-03-02 15:16:00,
2013-03-02 07:21:00,50.8,45.5,29.80,SSW,193,2.1,4.0,82,0.00,,,0.00,WUHU216HW,2013-03-02 15:21:00,
2013-03-02 07:26:00,50.8,45.5,29.79,South,180,2.2,4.0,82,0.00,,,0.00,WUHU216HW,2013-03-02 15:26:00,
2013-03-02 07:31:00,50.8,45.5,29.79,SSE,163,2.2,4.0,82,0.00,,,0.00,WUHU216HW,2013-03-02 15:31:00,
2013-03-02 07:36:00,50.9,45.6,29.80,SSE,158,2.0,4.0,82,0.00,,,0.00,WUHU216HW,2013-03-02 15:36:00,
2013-03-02 07:41:00,50.9,45.6,29.79,SSW,203,2.7,4.0,82,0.00,,,0.00,WUHU216HW,2013-03-02 15:41:00,
2013-03-02 07:46:00,51.1,45.8,29.79,South,177,2.7,4.7,82,0.00,,,0.00,WUHU216HW,2013-03-02 15:46:00,
2013-03-02 07:51:00,51.1,45.5,29.78,SSE,158,3.4,4.7,81,0.00,,,0.00,WUHU216HW,2013-03-02 15:51:00,
2013-03-02 07:56:00,51.3,45.6,29.78,South,171,2.2,4.5,81,0.00,,,0.00,WUHU216HW,2013-03-02 15:56:00,
2013-03-02 08:01:00,51.3,45.6,29.78,SSE,148,3.2,5.8,81,0.00,,,0.00,WUHU216HW,2013-03-02 16:01:00,
2013-03-02 08:06:00,51.5,45.5,29.77,South,170,3.5,5.8,80,0.00,,,0.00,WUHU216HW,2013-03-02 16:06:00,
2013-03-02 08:11:00,51.5,45.8,29.77,South,180,5.4,5.4,81,0.00,,,0.00,WUHU216HW,2013-03-02 16:11:00,
2013-03-02 08:16:00,51.7,46.0,29.78,SSW,203,1.8,5.4,81,0.00,,,0.00,WUHU216HW,2013-03-02 16:16:00,
2013-03-02 08:21:00,51.8,46.2,29.78,SSE,158,1.3,4.7,81,0.00,,,0.00,WUHU216HW,2013-03-02 16:21:00,
2013-03-02 08:26:00,52.2,46.3,29.78,SSE,158,2.9,4.7,80,0.00,,,0.00,WUHU216HW,2013-03-02 16:26:00,
2013-03-02 08:31:00,52.4,46.4,29.78,SSE,158,3.1,3.8,80,0.00,,,0.00,WUHU216HW,2013-03-02 16:31:00,
2013-03-02 08:36:00,52.4,46.1,29.78,SSE,161,3.0,3.8,79,0.00,,,0.00,WUHU216HW,2013-03-02 16:36:00,
2013-03-02 08:40:00,52.4,46.1,29.78,SSW,203,1.6,3.8,79,0.00,,,0.00,WUHU216HW,2013-03-02 16:40:00,
2013-03-02 08:41:00,52.4,46.1,29.78,South,181,3.6,3.8,79,0.00,,,0.00,WUHU216HW,2013-03-02 16:41:00,
2013-03-02 08:46:00,52.4,46.1,29.78,SSW,203,1.6,3.8,79,0.00,,,0.00,WUHU216HW,2013-03-02 16:46:00,
2013-03-02 09:00:00,53.3,46.6,29.78,SSE,158,3.4,3.4,78,0.00,,,0.00,WUHU216HW,2013-03-02 17:00:00,
2013-03-02 09:02:00,53.5,47.2,29.78,South,180,1.8,1.8,79,0.00,,,0.00,WUHU216HW,2013-03-02 17:02:00,
2013-03-02 09:05:00,53.5,47.2,29.78,South,180,1.8,3.6,79,0.00,,,0.00,WUHU216HW,2013-03-02 17:05:00,
2013-03-02 09:10:00,53.5,47.2,29.78,South,180,1.8,3.6,79,0.00,,,0.00,WUHU216HW,2013-03-02 17:10:00,
2013-03-02 10:00:00,59.0,50.4,29.77,South,180,1.1,1.1,73,0.00,,,0.00,WUHU216HW,2013-03-02 18:00:00,
2013-03-02 10:02:00,59.6,50.9,29.77,SSW,203,2.9,2.9,73,0.00,,,0.00,WUHU216HW,2013-03-02 18:02:00,
2013-03-02 10:05:00,59.6,50.9,29.77,SSW,203,2.9,2.9,73,0.00,,,0.00,WUHU216HW,2013-03-02 18:05:00,
2013-03-02 10:10:00,59.6,50.9,29.77,SSW,203,2.9,2.9,73,0.00,,,0.00,WUHU216HW,2013-03-02 18:10:00,
2013-03-02 11:00:00,61.6,49.7,29.76,SW,225,2.7,2.7,65,0.00,,,0.00,WUHU216HW,2013-03-02 19:00:00,
2013-03-02 11:02:00,61.0,49.2,29.76,SSE,158,4.0,4.0,65,0.00,,,0.00,WUHU216HW,2013-03-02 19:02:00,
2013-03-02 11:05:00,61.0,49.2,29.76,SSE,158,4.0,8.7,65,0.00,,,0.00,WUHU216HW,2013-03-02 19:05:00,
2013-03-02 11:10:00,61.0,49.2,29.76,SSE,158,4.0,8.7,65,0.00,,,0.00,WUHU216HW,2013-03-02 19:10:00,
2013-03-02 12:00:00,60.7,48.9,29.74,West,270,3.4,3.4,65,0.00,,,0.00,WUHU216HW,2013-03-02 20:00:00,
2013-03-02 12:05:00,60.7,48.9,29.74,West,270,3.4,3.4,65,0.00,,,0.00,WUHU216HW,2013-03-02 20:05:00,
2013-03-02 13:00:00,60.1,48.3,29.73,South,180,2.7,2.7,65,0.00,,,0.00,WUHU216HW,2013-03-02 21:00:00,
2013-03-02 13:05:00,60.1,47.9,29.72,SW,225,4.7,8.1,64,0.00,,,0.00,WUHU216HW,2013-03-02 21:05:00,
2013-03-02 13:10:00,60.1,48.3,29.72,West,270,6.9,8.9,65,0.00,,,0.00,WUHU216HW,2013-03-02 21:10:00,
2013-03-02 13:15:00,60.1,48.3,29.72,WSW,248,4.9,8.9,65,0.00,,,0.00,WUHU216HW,2013-03-02 21:15:00,
2013-03-02 13:20:00,60.5,48.7,29.72,SSW,203,4.7,6.9,65,0.00,,,0.00,WUHU216HW,2013-03-02 21:20:00,
2013-03-02 13:25:00,60.1,48.3,29.72,South,187,3.7,9.8,65,0.00,,,0.00,WUHU216HW,2013-03-02 21:25:00,
2013-03-02 13:30:00,59.6,47.3,29.72,South,178,4.3,9.8,64,0.00,,,0.00,WUHU216HW,2013-03-02 21:30:00,
2013-03-02 13:35:00,59.2,47.4,29.72,South,176,4.2,8.3,65,0.00,,,0.00,WUHU216HW,2013-03-02 21:35:00,
2013-03-02 13:40:00,59.0,47.7,29.72,SE,135,5.4,8.3,66,0.00,,,0.00,WUHU216HW,2013-03-02 21:40:00,
2013-03-02 13:45:00,58.7,47.7,29.71,South,182,4.1,7.6,67,0.00,,,0.00,WUHU216HW,2013-03-02 21:45:00,
2013-03-02 13:50:00,58.3,47.3,29.71,South,180,5.4,9.2,67,0.00,,,0.00,WUHU216HW,2013-03-02 21:50:00,
2013-03-02 13:55:00,58.1,47.6,29.71,South,180,4.7,9.2,68,0.00,,,0.00,WUHU216HW,2013-03-02 21:55:00,
2013-03-02 14:00:00,57.8,47.7,29.71,South,186,2.8,6.9,69,0.00,,,0.00,WUHU216HW,2013-03-02 22:00:00,
2013-03-02 14:05:00,57.6,47.9,29.71,South,175,4.0,6.0,70,0.00,,,0.00,WUHU216HW,2013-03-02 22:05:00,
2013-03-02 14:10:00,57.2,47.9,29.70,SSE,158,2.7,6.0,71,0.00,,,0.00,WUHU216HW,2013-03-02 22:10:00,
2013-03-02 14:15:00,57.2,48.6,29.70,South,180,4.9,7.4,73,0.00,,,0.00,WUHU216HW,2013-03-02 22:15:00,
2013-03-02 14:20:00,57.2,48.6,29.70,South,189,3.1,7.4,73,0.00,,,0.00,WUHU216HW,2013-03-02 22:20:00,
2013-03-02 14:25:00,57.1,48.4,29.70,SSE,158,3.6,4.9,73,0.00,,,0.00,WUHU216HW,2013-03-02 22:25:00,
2013-03-02 14:30:00,57.1,48.4,29.70,SSE,158,2.0,4.5,73,0.01,,,0.01,WUHU216HW,2013-03-02 22:30:00,
2013-03-02 14:35:00,57.1,48.4,29.70,South,181,0.5,3.6,73,0.01,,,0.01,WUHU216HW,2013-03-02 22:35:00,
2013-03-02 14:40:00,57.1,48.8,29.70,South,180,3.4,4.5,74,0.01,,,0.01,WUHU216HW,2013-03-02 22:40:00,
2013-03-02 14:45:00,56.5,48.2,29.70,WNW,293,4.3,5.4,74,0.01,,,0.01,WUHU216HW,2013-03-02 22:45:00,
2013-03-02 14:50:00,56.0,48.5,29.70,WNW,293,3.8,5.4,76,0.02,,,0.02,WUHU216HW,2013-03-02 22:50:00,
2013-03-02 14:55:00,55.6,48.5,29.70,WSW,238,1.5,4.5,77,0.02,,,0.02,WUHU216HW,2013-03-02 22:55:00,
2013-03-02 15:00:00,55.3,48.8,29.70,South,180,2.5,5.1,79,0.02,,,0.02,WUHU216HW,2013-03-02 23:00:00,
2013-03-02 15:05:00,54.9,48.2,29.70,SSW,212,3.4,6.5,78,0.03,,,0.03,WUHU216HW,2013-03-02 23:05:00,
2013-03-02 15:10:00,54.4,48.0,29.70,ESE,113,5.8,6.5,79,0.05,,,0.05,WUHU216HW,2013-03-02 23:10:00,
2013-03-02 15:15:00,54.0,48.1,29.70,SSW,203,3.4,5.8,80,0.06,,,0.06,WUHU216HW,2013-03-02 23:15:00,
2013-03-02 15:20:00,53.5,47.8,29.69,SSE,168,3.3,7.4,81,0.08,,,0.08,WUHU216HW,2013-03-02 23:20:00,
2013-03-02 15:25:00,53.3,48.0,29.69,SSE,158,2.9,7.4,82,0.08,,,0.08,WUHU216HW,2013-03-02 23:25:00,
2013-03-02 15:30:00,53.3,48.0,29.70,SSE,158,2.0,5.1,82,0.07,,,0.08,WUHU216HW,2013-03-02 23:30:00,
2013-03-02 15:35:00,53.3,48.2,29.69,WSW,245,1.8,5.1,83,0.07,,,0.08,WUHU216HW,2013-03-02 23:35:00,
2013-03-02 15:40:00,53.6,48.6,29.70,SSW,203,1.8,3.4,83,0.07,,,0.08,WUHU216HW,2013-03-02 23:40:00,
2013-03-02 15:45:00,53.8,48.8,29.69,SSW,204,2.0,2.9,83,0.06,,,0.08,WUHU216HW,2013-03-02 23:45:00,
2013-03-02 15:50:00,53.8,48.8,29.69,South,177,2.2,3.6,83,0.07,,,0.09,WUHU216HW,2013-03-02 23:50:00,
2013-03-02 15:55:00,53.8,49.1,29.69,South,180,3.6,3.6,84,0.07,,,0.09,WUHU216HW,2013-03-02 23:55:00,
2013-03-02 16:00:00,53.6,49.0,29.69,South,170,1.3,3.6,84,0.06,,,0.09,WUHU216HW,2013-03-03 00:00:00,
2013-03-02 16:05:00,53.6,49.0,29.69,SSW,203,2.7,3.6,84,0.05,,,0.09,WUHU216HW,2013-03-03 00:05:00,
2013-03-02 16:10:00,53.6,49.0,29.70,SSW,208,0.3,3.6,84,0.03,,,0.09,WUHU216HW,2013-03-03 00:10:00,
2013-03-02 16:15:00,53.6,49.0,29.70,SSW,203,4.0,4.0,84,0.02,,,0.09,WUHU216HW,2013-03-03 00:15:00,
2013-03-02 16:20:00,53.5,48.8,29.70,SSW,203,4.5,4.5,84,0.01,,,0.09,WUHU216HW,2013-03-03 00:20:00,
2013-03-02 16:25:00,53.3,48.6,29.70,SSW,205,1.3,4.5,84,0.01,,,0.09,WUHU216HW,2013-03-03 00:25:00,
2013-03-02 16:30:00,53.1,48.1,29.69,South,173,2.6,5.4,83,0.01,,,0.09,WUHU216HW,2013-03-03 00:30:00,
2013-03-02 16:35:00,52.9,47.6,29.68,South,177,1.2,5.4,82,0.01,,,0.09,WUHU216HW,2013-03-03 00:35:00,
2013-03-02 16:40:00,52.7,47.4,29.69,South,180,2.5,4.9,82,0.01,,,0.09,WUHU216HW,2013-03-03 00:40:00,
2013-03-02 16:45:00,52.6,46.9,29.69,West,263,1.8,4.9,81,0.00,,,0.09,WUHU216HW,2013-03-03 00:45:00,
2013-03-02 16:50:00,52.6,46.9,29.71,West,270,5.4,5.6,81,0.00,,,0.09,WUHU216HW,2013-03-03 00:50:00,
2013-03-02 16:55:00,52.2,46.3,29.71,West,267,1.7,6.3,80,0.00,,,0.09,WUHU216HW,2013-03-03 00:55:00,
2013-03-02 17:00:00,52.0,46.1,29.72,NW,315,11.4,11.4,80,0.00,,,0.09,WUHU216HW,2013-03-03 01:00:00,
2013-03-02 17:05:00,50.9,44.6,29.72,West,275,2.9,11.4,79,0.00,,,0.09,WUHU216HW,2013-03-03 01:05:00,
2013-03-02 17:10:00,50.0,44.1,29.72,NW,307,2.3,11.4,80,0.00,,,0.09,WUHU216HW,2013-03-03 01:10:00,
2013-03-02 17:15:00,49.5,43.6,29.73,NNE,23,7.2,7.2,80,0.00,,,0.09,WUHU216HW,2013-03-03 01:15:00,
2013-03-02 17:20:00,48.8,43.2,29.73,North,3,7.2,9.8,81,0.00,,,0.09,WUHU216HW,2013-03-03 01:20:00,
2013-03-02 17:25:00,48.4,43.1,29.73,NNE,28,4.6,9.8,82,0.00,,,0.09,WUHU216HW,2013-03-03 01:25:00,
2013-03-02 17:30:00,48.1,42.5,29.74,North,5,5.1,11.2,81,0.00,,,0.09,WUHU216HW,2013-03-03 01:30:00,
2013-03-02 17:35:00,47.9,42.3,29.74,NE,37,4.5,11.2,81,0.00,,,0.09,WUHU216HW,2013-03-03 01:35:00,
2013-03-02 17:40:00,47.7,42.1,29.74,NNE,19,5.8,9.2,81,0.00,,,0.09,WUHU216HW,2013-03-03 01:40:00,
2013-03-02 17:45:00,47.7,42.5,29.75,North,7,4.1,9.2,82,0.00,,,0.09,WUHU216HW,2013-03-03 01:45:00,
2013-03-02 17:50:00,47.7,42.5,29.75,NNE,16,2.4,6.0,82,0.00,,,0.09,WUHU216HW,2013-03-03 01:50:00,
2013-03-02 17:55:00,47.7,42.5,29.75,ENE,68,4.9,4.9,82,0.00,,,0.09,WUHU216HW,2013-03-03 01:55:00,
2013-03-02 18:00:00,47.7,42.5,29.75,NNE,15,1.8,4.9,82,0.00,,,0.09,WUHU216HW,2013-03-03 02:00:00,
2013-03-02 18:05:00,47.7,42.5,29.75,North,8,2.7,5.4,82,0.00,,,0.09,WUHU216HW,2013-03-03 02:05:00,
2013-03-02 18:10:00,47.5,42.3,29.75,ENE,68,1.6,5.4,82,0.00,,,0.09,WUHU216HW,2013-03-03 02:10:00,
2013-03-02 18:15:00,47.3,42.1,29.75,NNE,23,1.8,3.8,82,0.00,,,0.09,WUHU216HW,2013-03-03 02:15:00,
2013-03-02 18:20:00,47.3,42.1,29.76,NNW,338,1.6,3.1,82,0.00,,,0.09,WUHU216HW,2013-03-03 02:20:00,
2013-03-02 18:25:00,47.2,41.9,29.76,SE,135,2.2,2.2,82,0.00,,,0.09,WUHU216HW,2013-03-03 02:25:00,
2013-03-02 18:30:00,47.2,41.9,29.77,NNE,23,2.0,2.7,82,0.00,,,0.09,WUHU216HW,2013-03-03 02:30:00,
2013-03-02 18:35:00,47.0,41.8,29.77,North,0,3.4,3.4,82,0.00,,,0.09,WUHU216HW,2013-03-03 02:35:00,
2013-03-02 18:40:00,47.0,41.8,29.77,East,90,3.4,3.4,82,0.00,,,0.09,WUHU216HW,2013-03-03 02:40:00,
2013-03-02 18:45:00,47.0,41.8,29.77,ENE,58,1.1,3.4,82,0.01,,,0.10,WUHU216HW,2013-03-03 02:45:00,
2013-03-02 18:50:00,46.8,41.6,29.77,NNW,338,1.8,3.4,82,0.03,,,0.12,WUHU216HW,2013-03-03 02:50:00,
2013-03-02 18:55:00,46.6,41.8,29.77,SE,140,1.2,2.0,83,0.05,,,0.14,WUHU216HW,2013-03-03 02:55:00,
2013-03-02 19:00:00,46.4,41.6,29.78,East,100,1.1,2.0,83,0.07,,,0.16,WUHU216HW,2013-03-03 03:00:00,
2013-03-02 19:05:00,46.1,41.2,29.78,SE,127,0.6,1.8,83,0.08,,,0.17,WUHU216HW,2013-03-03 03:05:00,
2013-03-02 19:10:00,45.9,41.4,29.78,East,90,1.8,2.9,84,0.09,,,0.18,WUHU216HW,2013-03-03 03:10:00,
2013-03-02 19:15:00,45.5,41.1,29.78,East,90,1.8,3.4,84,0.10,,,0.19,WUHU216HW,2013-03-03 03:15:00,
2013-03-02 19:20:00,45.4,40.9,29.78,East,94,1.8,3.4,84,0.11,,,0.20,WUHU216HW,2013-03-03 03:20:00,
2013-03-02 19:25:00,45.2,41.0,29.78,ENE,68,1.8,3.1,85,0.11,,,0.20,WUHU216HW,2013-03-03 03:25:00,
2013-03-02 19:30:00,45.0,40.8,29.78,NE,40,1.0,3.1,85,0.11,,,0.20,WUHU216HW,2013-03-03 03:30:00,
2013-03-02 19:35:00,45.0,40.8,29.78,ESE,113,1.1,3.1,85,0.11,,,0.20,WUHU216HW,2013-03-03 03:35:00,
2013-03-02 19:40:00,45.0,40.5,29.78,ESE,113,1.6,2.7,84,0.10,,,0.20,WUHU216HW,2013-03-03 03:40:00,
2013-03-02 19:45:00,44.8,40.3,29.79,South,180,1.8,2.2,84,0.09,,,0.21,WUHU216HW,2013-03-03 03:45:00,
2013-03-02 19:50:00,44.6,40.2,29.78,SE,131,1.2,2.5,84,0.08,,,0.21,WUHU216HW,2013-03-03 03:50:00,
2013-03-02 19:55:00,44.5,40.0,29.78,SW,214,1.2,2.7,84,0.06,,,0.21,WUHU216HW,2013-03-03 03:55:00,
2013-03-02 20:00:00,44.3,39.8,29.79,SE,140,1.5,3.4,84,0.04,,,0.21,WUHU216HW,2013-03-03 04:00:00,
2013-03-02 20:05:00,44.1,39.9,29.79,SE,143,1.8,3.4,85,0.03,,,0.21,WUHU216HW,2013-03-03 04:05:00,
2013-03-02 20:10:00,44.1,39.9,29.79,SE,135,0.7,2.7,85,0.03,,,0.21,WUHU216HW,2013-03-03 04:10:00,
2013-03-02 20:15:00,43.9,39.7,29.79,SSE,151,1.0,2.5,85,0.03,,,0.22,WUHU216HW,2013-03-03 04:15:00,
2013-03-02 20:20:00,43.9,39.7,29.80,South,180,1.8,2.5,85,0.02,,,0.22,WUHU216HW,2013-03-03 04:20:00,
2013-03-02 20:25:00,43.7,39.5,29.79,SE,124,1.4,3.4,85,0.02,,,0.22,WUHU216HW,2013-03-03 04:25:00,
2013-03-02 20:30:00,43.7,39.5,29.80,SE,135,0.9,3.4,85,0.02,,,0.22,WUHU216HW,2013-03-03 04:30:00,
2013-03-02 20:35:00,43.7,39.5,29.80,SSE,167,0.7,2.9,85,0.02,,,0.22,WUHU216HW,2013-03-03 04:35:00,
2013-03-02 20:40:00,43.7,39.5,29.80,SSE,158,2.5,2.9,85,0.01,,,0.22,WUHU216HW,2013-03-03 04:40:00,
2013-03-02 20:45:00,43.7,39.5,29.80,SSE,158,2.0,2.5,85,0.01,,,0.22,WUHU216HW,2013-03-03 04:45:00,
2013-03-02 20:50:00,43.7,39.5,29.81,South,172,1.0,2.5,85,0.01,,,0.22,WUHU216HW,2013-03-03 04:50:00,
2013-03-02 20:55:00,43.7,39.5,29.81,East,95,0.6,2.0,85,0.01,,,0.22,WUHU216HW,2013-03-03 04:55:00,
2013-03-02 21:00:00,43.7,39.5,29.81,SE,143,0.5,1.8,85,0.02,,,0.23,WUHU216HW,2013-03-03 05:00:00,
2013-03-02 21:05:00,43.7,39.8,29.81,SSE,156,1.1,2.0,86,0.02,,,0.23,WUHU216HW,2013-03-03 05:05:00,
2013-03-02 21:10:00,43.7,39.8,29.81,ESE,115,0.9,2.2,86,0.01,,,0.23,WUHU216HW,2013-03-03 05:10:00,
2013-03-02 21:15:00,43.9,40.0,29.81,ENE,68,1.1,2.2,86,0.02,,,0.24,WUHU216HW,2013-03-03 05:15:00,
2013-03-02 21:20:00,43.9,40.0,29.80,East,90,1.6,1.6,86,0.02,,,0.24,WUHU216HW,2013-03-03 05:20:00,
2013-03-02 21:25:00,43.9,40.0,29.80,South,180,1.1,1.6,86,0.02,,,0.24,WUHU216HW,2013-03-03 05:25:00,
2013-03-02 21:30:00,43.7,39.8,29.80,SSE,151,1.2,2.5,86,0.02,,,0.24,WUHU216HW,2013-03-03 05:30:00,
2013-03-02 21:35:00,43.7,39.8,29.81,SSE,161,0.9,2.5,86,0.02,,,0.24,WUHU216HW,2013-03-03 05:35:00,
2013-03-02 21:40:00,43.7,39.8,29.81,SE,135,0.0,1.3,86,0.02,,,0.24,WUHU216HW,2013-03-03 05:40:00,
2013-03-02 21:45:00,43.9,40.0,29.81,SE,131,0.7,1.1,86,0.02,,,0.24,WUHU216HW,2013-03-03 05:45:00,
2013-03-02 21:50:00,43.9,40.0,29.81,ESE,103,0.8,1.8,86,0.02,,,0.24,WUHU216HW,2013-03-03 05:50:00,
2013-03-02 21:55:00,43.9,40.0,29.80,East,97,1.7,3.1,86,0.01,,,0.24,WUHU216HW,2013-03-03 05:55:00,
2013-03-02 22:00:00,43.9,40.0,29.80,East,90,1.3,3.1,86,0.01,,,0.24,WUHU216HW,2013-03-03 06:00:00,
2013-03-02 22:05:00,43.7,39.5,29.81,SSE,147,0.5,2.9,85,0.01,,,0.24,WUHU216HW,2013-03-03 06:05:00,
2013-03-02 22:10:00,43.7,39.5,29.81,NE,47,1.3,1.8,85,0.01,,,0.24,WUHU216HW,2013-03-03 06:10:00,
2013-03-02 22:15:00,43.7,39.5,29.81,ESE,113,0.7,2.5,85,0.00,,,0.24,WUHU216HW,2013-03-03 06:15:00,
2013-03-02 22:20:00,43.7,39.5,29.81,ESE,113,0.0,2.5,85,0.00,,,0.24,WUHU216HW,2013-03-03 06:20:00,
2013-03-02 22:25:00,43.9,39.7,29.81,SSE,153,0.7,1.8,85,0.00,,,0.24,WUHU216HW,2013-03-03 06:25:00,
2013-03-02 22:30:00,43.9,39.7,29.81,ESE,111,1.0,1.8,85,0.00,,,0.24,WUHU216HW,2013-03-03 06:30:00,
2013-03-02 22:35:00,43.7,39.5,29.81,North,359,0.8,2.2,85,0.00,,,0.24,WUHU216HW,2013-03-03 06:35:00,
2013-03-02 22:40:00,43.7,39.5,29.81,ENE,70,0.9,2.7,85,0.00,,,0.24,WUHU216HW,2013-03-03 06:40:00,
2013-03-02 22:45:00,43.7,39.5,29.81,NNE,16,1.2,2.7,85,0.00,,,0.24,WUHU216HW,2013-03-03 06:45:00,
2013-03-02 22:50:00,43.7,39.5,29.81,ESE,113,2.2,3.4,85,0.00,,,0.24,WUHU216HW,2013-03-03 06:50:00,
2013-03-02 22:55:00,43.7,39.5,29.81,North,0,2.0,4.3,85,0.00,,,0.24,WUHU216HW,2013-03-03 06:55:00,
2013-03-02 23:00:00,43.6,39.3,29.81,NE,56,2.4,4.7,85,0.00,,,0.24,WUHU216HW,2013-03-03 07:00:00,
2013-03-02 23:05:00,43.4,39.2,29.81,ENE,68,2.7,4.7,85,0.00,,,0.24,WUHU216HW,2013-03-03 07:05:00,
2013-03-02 23:10:00,43.2,39.0,29.82,East,94,1.1,3.1,85,0.00,,,0.24,WUHU216HW,2013-03-03 07:10:00,
2013-03-02 23:15:00,43.0,38.8,29.82,NE,45,1.6,2.9,85,0.00,,,0.24,WUHU216HW,2013-03-03 07:15:00,
2013-03-02 23:20:00,43.0,38.8,29.82,NE,35,1.7,2.9,85,0.01,,,0.25,WUHU216HW,2013-03-03 07:20:00,
2013-03-02 23:25:00,43.0,38.8,29.82,North,0,3.1,4.9,85,0.01,,,0.25,WUHU216HW,2013-03-03 07:25:00,
2013-03-02 23:30:00,42.8,38.6,29.82,NE,45,2.7,5.1,85,0.02,,,0.26,WUHU216HW,2013-03-03 07:30:00,
2013-03-02 23:35:00,42.8,38.6,29.82,NNE,23,4.5,5.1,85,0.03,,,0.27,WUHU216HW,2013-03-03 07:35:00,
2013-03-02 23:40:00,42.8,38.6,29.82,NNE,21,0.6,4.5,85,0.04,,,0.28,WUHU216HW,2013-03-03 07:40:00,
2013-03-02 23:45:00,42.8,38.9,29.82,ENE,68,1.1,4.5,86,0.04,,,0.28,WUHU216HW,2013-03-03 07:45:00,
2013-03-02 23:50:00,42.7,38.4,29.82,SSE,158,1.6,2.5,85,0.04,,,0.28,WUHU216HW,2013-03-03 07:50:00,
2013-03-02 23:55:00,42.3,38.1,29.81,SE,135,0.2,2.2,85,0.04,,,0.28,WUHU216HW,2013-03-03 07:55:00,